Regional Weather Roundup
Issued by NWS

Home | Current Version | Previous Version | Graphics & Text | Print | Product List | Glossary On
Versions: 1 2 3 4 5 6 7 8 9 10 11 12 13 14 15 16 17 18 19 20 21 22 23 24 25 26 27 28 29 30 31 32 33 34 35 36 37 38 39 40 41 42 43 44 45 46 47 48 49 50
000
ASUS43 KLSX 202259
RWRMO

WEATHER SUMMARY FOR MISSOURI
NATIONAL WEATHER SERVICE SPRINGFIELD MO
600 PM CDT MON OCT 20 2014

NOTE: "FAIR" INDICATES FEW OR NO CLOUDS BELOW 12,000 FEET WITH NO
       SIGNIFICANT WEATHER AND/OR OBSTRUCTIONS TO VISIBILITY.
       CURRENT SKY AND/OR WEATHER CONDITIONS ARE NOT AVAILABLE FOR
       CHILLICOTHE AND FARMINGTON.

MOZ001>031-035>038-043-044-053-054-210000-
...NORTHERN AND WESTERN MISSOURI...

CITY           SKY/WX    TMP DP  RH WIND       PRES   REMARKS
KANSAS CTY INT CLEAR     69  43  38 NW5       30.03S
KANSAS C DTWN  CLEAR     72  43  35 N5        30.02S
LEE`S SUMMIT   CLEAR     68  44  42 N7        30.04R
ST JOSEPH      CLEAR     72  39  30 N5        30.03R
KIRKSVILLE     CLEAR     66  44  45 NW6       30.02R

$$
MOZ066>068-077>081-088>096-101>105-210000-
...SOUTHWEST MISSOURI...

CITY           SKY/WX    TMP DP  RH WIND       PRES   REMARKS
SPRINGFIELD    CLEAR     72  54  53 NW6       30.02R
JOPLIN         CLEAR     73  55  53 W3        30.03S

$$
MOZ032>034-039>042-045>050-055>058-069>072-210000-
...CENTRAL MISSOURI...

CITY           SKY/WX    TMP DP  RH WIND       PRES   REMARKS
COLUMBIA       CLEAR     67  44  43 NW7       30.00S
JEFFERSON CITY CLEAR     71  40  32 NW7       29.99R
ROLLA          CLEAR     67  46  47 NW6       29.98R
SEDALIA        CLEAR     71  41  33 N6        30.03R
OSAGE BEACH    CLEAR     70  46  43 CALM      30.01R

$$
MOZ051-052-059>065-210000-
...EAST CENTRAL MISSOURI...

CITY           SKY/WX    TMP DP  RH WIND       PRES   REMARKS
ST LOUIS INTL  CLEAR     68  44  42 N7        29.97R
SPIRIT OF STL  CLEAR     66  44  45 NW5       29.96R
ST CHARLES     CLEAR     67  43  41 NW9       29.96R

$$
MOZ072>076-082>087-097>100-106>115-210000-
...SOUTH CENTRAL AND SOUTHEAST MISSOURI...

CITY           SKY/WX    TMP DP  RH WIND       PRES   REMARKS
CAPE GIRARDEAU CLEAR     69  56  62 SW6       29.94R
FARMINGTON     CLEAR     70  46  43 NW7       29.99R
WEST PLAINS    CLEAR     70  56  61 SW7       30.00S

$$



USA.gov is the U.S. government's official web portal to all federal, state and local government web resources and services.